Wind_Speed
45 45 45 44 45 46 46 47 48 49 49 49 49 48 48 48 48 47 47 46 45 44 42 40 40 39 37 37 35 34 34 33 32 30 29 29 29 29
45 45 44 44 45 46 47 48 50 51 50 49 49 49 49 48 47 47 47 46 44 41 40 39 38 38 37 36 36 34 33 32 33 32 30 30 30 29
43 44 45 45 46 47 49 50 50 51 50 48 48 49 49 48 48 47 47 46 43 41 40 38 37 36 36 36 35 34 33 32 33 32 30 30 30 29
41 42 44 45 45 46 48 49 50 50 50 48 48 48 48 47 46 45 43 41 40 39 38 37 36 36 35 36 35 34 33 32 31 30 30 29 28 26
39 40 42 44 45 46 47 48 48 48 48 48 47 46 46 45 43 42 40 39 38 37 37 36 35 35 34 35 36 35 34 32 30 29 29 28 28 26
39 40 42 42 43 44 45 46 46 46 46 46 45 43 42 42 39 37 37 37 36 37 37 35 34 33 33 34 35 34 33 31 29 29 29 28 27 25
39 40 41 41 42 44 44 43 43 43 44 45 44 42 40 38 36 35 34 35 35 35 36 34 33 33 32 33 34 33 32 29 28 27 27 27 26 25
38 39 40 40 41 41 42 41 41 41 42 42 42 40 37 35 33 33 35 35 35 34 34 33 33 33 34 34 33 31 29 28 28 28 27 27 25 25
40 39 40 40 40 40 40 39 39 39 40 40 39 37 36 34 33 34 34 35 34 33 33 32 33 34 34 33 31 29 29 28 27 28 28 26 25 25
40 40 40 40 40 40 40 39 39 38 38 37 35 35 36 34 32 32 32 33 32 31 30 31 32 32 31 31 30 29 28 28 28 28 28 27 26 26
37 38 39 38 38 38 37 37 36 35 35 34 33 33 33 32 31 31 31 31 31 30 28 28 28 29 29 29 28 28 27 27 26 27 27 27 26 25
35 36 37 37 38 37 35 35 35 35 34 33 32 31 31 32 31 30 29 28 28 29 27 26 26 27 27 27 27 27 26 26 26 26 26 25 25 25
34 35 36 37 37 36 35 34 33 33 33 32 31 31 31 31 31 30 29 28 28 28 27 26 26 26 25 25 26 26 25 25 25 25 25 25 25 24
35 35 36 37 37 36 35 34 33 32 32 32 31 31 30 30 29 29 28 27 26 26 26 26 26 25 25 26 26 26 25 25 25 25 25 25 25 24
36 36 36 36 36 35 33 33 32 32 32 31 31 31 31 30 29 29 28 27 26 25 25 25 25 25 25 25 25 26 26 25 25 26 26 26 26 25
37 36 36 36 35 34 32 32 32 31 30 30 29 29 29 28 28 27 27 27 27 27 26 26 26 25 25 25 26 26 26 25 25 26 27 27 27 26
36 35 35 35 34 33 31 31 31 31 30 30 29 29 28 27 26 25 25 26 26 26 27 26 26 26 25 26 26 27 26 26 25 26 27 28 29 28
35 34 34 34 34 33 32 31 31 31 31 31 30 29 27 27 26 26 25 25 26 25 26 27 27 26 26 26 27 27 27 27 27 28 28 29 29 28
34 33 33 33 34 33 33 32 31 30 30 30 29 28 27 26 26 27 26 26 25 25 26 27 27 27 26 27 27 28 28 28 28 28 29 29 29 29
34 33 33 33 33 33 32 31 30 29 29 29 29 28 28 27 27 27 27 26 26 26 26 27 27 28 27 27 28 28 30 29 29 29 29 30 30 30
34 33 33 32 32 32 31 31 30 29 28 28 28 27 27 27 27 27 27 27 26 26 27 27 28 28 28 28 28 29 29 29 29 30 30 30 30 30
35 34 33 33 32 31 31 30 29 29 28 27 27 27 26 26 27 27 27 27 26 26 26 27 28 28 28 28 28 29 29 29 30 30 31 31 31 31
36 35 34 33 32 31 30 29 28 28 27 27 27 27 27 27 27 27 27 27 27 27 27 27 28 28 28 28 28 29 29 30 30 31 31 31 31 31
Wind_Direction
269 271 273 276 278 280 280 281 282 284 284 284 284 284 283 282 281 280 280 280 279 279 275 273 272 271 272 271 270 270 266 266 263 265 268 270 270 272
271 272 275 277 279 279 280 280 281 284 285 285 285 284 283 283 282 281 279 278 278 276 271 270 269 269 270 269 268 267 265 265 264 264 268 271 271 270
274 275 276 278 278 278 279 280 282 283 284 286 287 284 281 280 280 280 278 276 275 273 270 269 267 268 267 263 263 263 262 262 263 264 268 269 269 269
276 277 278 279 280 279 280 281 282 283 284 285 286 285 281 278 278 278 276 275 272 272 269 268 266 266 264 260 260 260 259 259 260 261 263 265 266 266
280 280 280 281 281 281 281 281 282 283 284 286 286 283 280 279 278 276 274 272 270 269 267 267 266 266 262 258 259 258 258 258 258 259 261 262 263 263
281 282 283 283 283 283 283 284 283 283 285 287 286 284 280 278 277 273 271 272 270 268 267 265 265 262 259 258 257 255 255 254 256 259 259 259 261 260
281 282 283 285 287 286 285 285 284 284 286 287 286 284 281 278 276 272 269 268 267 267 266 263 261 259 259 257 256 253 252 252 255 258 257 257 257 257
281 283 284 286 287 288 288 286 285 286 287 287 284 282 280 277 274 270 267 266 266 265 262 260 259 258 257 257 254 249 249 252 255 256 256 255 255 253
282 283 285 286 286 286 287 286 287 288 287 287 285 281 277 274 272 270 268 265 264 262 259 258 259 259 258 254 251 249 250 253 253 253 251 252 253 250
283 283 284 284 284 285 286 286 286 288 289 288 285 280 276 273 272 270 269 268 265 262 259 260 256 255 255 251 249 248 248 249 250 250 249 250 249 247
286 286 286 286 287 287 286 286 286 288 289 287 284 279 274 271 269 267 268 267 263 259 257 256 252 253 251 246 246 246 246 246 247 247 247 248 245 244
288 289 289 289 290 290 288 287 286 288 288 286 281 276 272 270 269 266 267 265 261 257 255 254 254 253 248 244 244 244 243 245 246 247 246 244 241 241
290 290 290 290 290 291 289 287 287 287 286 284 280 275 271 269 267 265 264 263 261 260 256 256 254 251 247 245 244 242 243 245 245 244 243 240 238 238
295 293 293 293 292 292 290 286 286 284 282 281 278 274 270 269 266 264 263 262 262 260 258 255 254 251 247 245 244 242 242 243 243 241 240 237 236 238
298 296 296 296 295 292 289 285 283 284 282 279 278 275 271 268 265 263 262 260 259 257 255 251 251 252 248 246 243 241 241 241 241 239 237 236 236 238
299 298 298 298 297 294 290 285 283 283 281 277 275 274 271 268 266 264 262 259 258 255 251 250 251 252 249 245 242 240 240 240 240 239 238 236 236 236
299 299 299 298 297 295 291 287 283 282 280 277 276 275 271 267 264 261 260 259 259 255 253 250 249 249 246 242 241 241 240 239 239 240 239 237 235 234
300 300 300 299 297 295 292 289 286 283 279 276 273 273 269 265 262 261 261 259 258 255 254 251 248 247 244 241 239 238 238 239 239 239 239 238 237 236
302 302 301 300 298 295 292 289 286 282 279 275 272 271 267 264 260 258 258 258 257 254 251 249 247 245 242 240 239 238 239 239 239 238 237 237 236 237
303 302 302 301 300 296 292 289 287 283 280 277 272 270 267 263 259 257 257 255 255 253 251 249 247 244 241 241 240 240 239 238 237 236 236 236 235 236
302 300 299 299 298 297 294 289 286 283 280 277 273 270 266 262 259 258 257 255 254 252 249 247 245 243 243 242 241 240 238 238 238 237 236 236 236 237
301 300 299 298 297 296 294 291 286 282 279 275 272 269 266 262 260 258 256 253 252 250 248 245 243 243 243 243 241 239 238 239 239 238 236 236 236 237
300 299 298 297 296 294 293 289 285 280 276 273 270 268 266 262 259 257 254 252 249 248 247 245 244 243 243 242 241 239 238 239 238 238 237 237 237 238
Height
5702 5701 5699 5697 5695 5692 5688 5685 5682 5679 5678 5676 5671 5667 5663 5660 5657 5654 5652 5651 5649 5648 5647 5647 5648 5649 5649 5650 5652 5653 5654 5655 5657 5658 5660 5661 5663 5664
5689 5688 5686 5684 5682 5679 5676 5673 5669 5665 5663 5661 5657 5654 5649 5647 5644 5642 5640 5638 5637 5636 5636 5636 5637 5638 5639 5640 5642 5643 5645 5646 5648 5650 5651 5653 5655 5656
5677 5675 5674 5672 5669 5666 5663 5660 5656 5652 5649 5647 5643 5639 5636 5634 5631 5629 5627 5626 5625 5625 5625 5625 5626 5627 5628 5630 5632 5634 5636 5637 5639 5641 5643 5645 5647 5648
5664 5663 5661 5659 5656 5653 5650 5647 5643 5639 5635 5632 5629 5625 5622 5620 5618 5616 5615 5613 5614 5614 5614 5614 5615 5617 5618 5620 5623 5625 5627 5629 5631 5633 5635 5637 5639 5640
5652 5651 5649 5646 5643 5640 5637 5633 5630 5626 5622 5619 5616 5612 5610 5607 5605 5604 5603 5602 5603 5603 5603 5604 5605 5607 5609 5611 5613 5616 5618 5621 5623 5625 5627 5629 5631 5632
5642 5639 5637 5634 5631 5628 5624 5621 5617 5614 5610 5606 5603 5600 5598 5595 5593 5592 5592 5592 5593 5593 5594 5595 5596 5598 5600 5602 5604 5607 5609 5612 5614 5617 5619 5621 5623 5624
5630 5628 5625 5622 5619 5616 5612 5609 5605 5601 5598 5595 5591 5588 5586 5585 5583 5583 5582 5582 5583 5584 5585 5586 5588 5589 5591 5593 5595 5598 5600 5603 5606 5608 5610 5613 5615 5617
5619 5616 5613 5611 5607 5604 5600 5596 5593 5590 5587 5583 5580 5577 5576 5575 5574 5573 5573 5573 5574 5576 5576 5577 5579 5580 5582 5584 5587 5589 5592 5595 5597 5600 5603 5605 5607 5609
5607 5605 5602 5599 5596 5593 5589 5585 5582 5579 5575 5572 5568 5566 5565 5565 5565 5564 5564 5564 5565 5566 5567 5568 5570 5572 5574 5576 5578 5581 5583 5586 5589 5592 5595 5597 5599 5601
5596 5593 5590 5587 5584 5581 5578 5575 5572 5568 5565 5561 5558 5557 5555 5555 5555 5555 5554 5554 5555 5556 5557 5559 5561 5563 5565 5567 5570 5572 5575 5578 5581 5584 5586 5589 5591 5593
5585 5582 5579 5576 5574 5571 5567 5564 5561 5558 5554 5551 5549 5547 5546 5546 5546 5546 5546 5546 5546 5547 5549 5551 5552 5554 5557 5559 5562 5564 5567 5570 5573 5576 5578 5581 5583 5586
5575 5572 5569 5566 5562 5559 5556 5553 5551 5548 5545 5542 5540 5538 5537 5537 5537 5537 5538 5538 5538 5540 5541 5543 5545 5547 5549 5552 5554 5557 5560 5562 5565 5568 5571 5573 5576 5578
5565 5562 5558 5555 5551 5548 5545 5543 5541 5539 5536 5533 5531 5530 5529 5528 5528 5528 5529 5530 5531 5532 5534 5535 5537 5539 5542 5545 5547 5550 5553 5555 5558 5561 5564 5566 5569 5572
5555 5551 5548 5544 5540 5537 5535 5533 5531 5528 5526 5524 5522 5521 5520 5520 5520 5520 5521 5522 5523 5524 5526 5527 5529 5532 5534 5537 5540 5542 5545 5548 5551 5554 5557 5559 5562 5564
5545 5541 5537 5533 5529 5526 5524 5523 5521 5518 5516 5515 5513 5512 5511 5511 5511 5512 5512 5513 5515 5516 5518 5520 5522 5525 5527 5530 5532 5535 5538 5541 5544 5546 5549 5552 5555 5558
5535 5531 5527 5523 5520 5517 5514 5513 5511 5508 5507 5506 5505 5504 5503 5503 5503 5504 5505 5506 5507 5509 5510 5513 5515 5518 5520 5522 5525 5528 5531 5534 5536 5539 5542 5545 5548 5551
5526 5522 5517 5514 5510 5507 5505 5503 5501 5499 5497 5497 5496 5495 5495 5495 5495 5496 5497 5498 5499 5501 5503 5505 5508 5510 5512 5515 5518 5521 5524 5526 5529 5532 5535 5538 5541 5544
5517 5513 5509 5505 5501 5499 5496 5494 5492 5490 5489 5488 5487 5487 5487 5487 5488 5489 5489 5491 5492 5493 5495 5498 5500 5502 5505 5507 5510 5513 5516 5519 5522 5524 5527 5531 5534 5537
5508 5504 5500 5496 5493 5490 5487 5485 5483 5481 5480 5479 5479 5479 5478 5479 5480 5481 5482 5483 5484 5486 5488 5490 5492 5495 5497 5500 5503 5505 5508 5511 5514 5517 5520 5523 5526 5529
5499 5495 5491 5488 5484 5481 5478 5476 5474 5472 5471 5470 5470 5470 5470 5470 5471 5472 5474 5475 5476 5478 5480 5482 5484 5487 5490 5493 5495 5498 5500 5503 5506 5509 5512 5515 5518 5521
5490 5486 5482 5479 5476 5473 5470 5467 5465 5463 5462 5461 5461 5461 5461 5462 5463 5464 5465 5466 5468 5470 5472 5474 5476 5479 5481 5484 5487 5489 5492 5495 5498 5501 5504 5507 5510 5513
5480 5477 5473 5470 5466 5463 5461 5458 5456 5454 5453 5452 5452 5452 5452 5453 5454 5455 5456 5458 5460 5461 5463 5466 5468 5470 5473 5476 5478 5481 5484 5487 5489 5492 5495 5499 5501 5505
5470 5466 5463 5460 5457 5454 5451 5449 5447 5445 5444 5443 5443 5443 5443 5444 5445 5446 5448 5449 5451 5453 5455 5457 5460 5462 5464 5467 5470 5472 5475 5478 5481 5484 5487 5490 5493 5496